Lid_Strength_Index
-0 -0 0 0 0 -0 -0 -0 -0 -0 -0 -1 -1 -1 -1 -1 -0 3 8 4 3 -1 1 7 8 8 8 9 9 12 14 16 15 14 13 12 12 11 11 11 11 10 9 8 6
0 0 0 0 0 0 -0 -0 -0 -0 -0 -0 -1 -1 -1 -1 4 6 1 -1 -2 -0 7 9 10 9 10 10 11 13 15 14 13 13 12 12 12 11 11 12 12 11 10 9 4
0 0 0 0 0 0 -0 -0 -0 -0 -0 -0 -0 -1 -1 1 8 8 -1 -2 -1 2 6 8 8 10 11 10 10 14 15 13 13 12 12 12 12 11 12 13 11 11 10 9 6
-0 0 0 0 0 0 -0 -0 -0 -0 -0 -0 -1 -1 -0 4 14 6 -1 -1 -1 5 7 8 10 11 13 12 11 13 12 13 11 11 12 12 12 13 12 11 11 10 9 9 7
-1 -0 -0 0 1 0 0 -0 -0 -0 -0 -0 -1 -1 3 9 8 5 -0 1 5 7 8 9 11 12 13 12 12 12 13 12 11 11 12 11 11 12 12 11 11 11 10 9 9
-0 -0 -0 -0 0 0 0 -0 -0 -0 -0 -0 -1 -0 6 11 5 4 5 6 7 8 9 9 10 10 12 13 12 13 12 12 11 11 11 12 13 12 12 12 12 11 11 10 9
-0 -0 0 -0 -0 -0 -0 -0 -0 -0 -0 -0 -1 2 7 8 4 4 6 7 7 8 9 9 9 11 11 12 11 12 13 12 12 12 12 12 12 13 13 12 12 12 12 11 11
-0 -0 -0 -0 0 -0 -0 -0 -1 -0 -1 -1 -1 5 8 5 4 5 6 7 7 7 7 8 8 9 11 11 11 13 13 15 13 12 12 12 14 12 13 12 12 12 13 12 12
0 0 -0 -0 -0 0 0 -0 -0 -0 -0 -1 5 7 9 3 5 4 6 7 7 8 7 6 8 11 11 13 14 14 16 16 13 12 13 14 14 13 13 13 13 13 13 13 13
1 1 0 -0 -0 -0 -0 -0 -0 1 1 1 3 8 7 8 6 5 6 6 8 9 9 9 11 13 14 14 17 16 16 16 15 14 14 15 14 13 13 13 13 13 14 13 13
1 1 0 -0 -0 -1 1 3 6 7 5 8 8 9 8 6 5 6 6 7 8 9 12 12 13 14 12 13 13 14 15 16 15 13 14 14 15 12 12 14 13 12 13 13 12
2 1 1 0 -0 -1 1 5 6 6 8 5 6 6 6 6 8 7 6 9 10 12 12 13 14 11 11 13 13 15 16 15 14 13 14 14 15 13 12 12 11 10 13 12 14
3 2 2 1 -0 0 2 3 2 3 8 7 6 6 6 7 9 8 7 9 11 13 12 13 12 11 11 14 14 15 16 16 15 14 15 16 17 15 13 13 11 11 13 13 13
2 3 2 1 3 2 3 1 1 3 12 10 8 7 7 7 9 7 7 9 11 12 12 13 12 12 13 14 13 16 13 14 15 16 18 16 19 16 14 13 11 13 13 13 13
3 2 2 2 4 4 2 0 2 4 20 9 9 5 8 8 9 9 7 9 11 11 11 13 13 13 14 13 12 14 13 14 15 17 18 19 19 18 15 14 12 13 14 14 14
1 2 2 3 3 2 2 1 2 13 19 12 9 10 10 10 10 10 9 8 9 11 12 13 12 12 12 13 12 13 14 15 17 17 20 18 18 18 16 14 14 13 13 13 14
1 1 3 2 5 2 2 4 14 18 10 13 13 11 11 12 12 11 11 12 12 14 14 14 13 13 12 13 13 15 15 19 20 21 20 19 19 15 14 13 14 13 13 13 15
1 1 2 3 3 3 5 9 18 13 13 11 12 12 13 12 13 13 13 13 12 14 16 15 17 13 12 12 14 15 15 18 22 22 21 19 20 16 14 13 13 14 14 15 15
1 3 3 2 3 4 8 16 15 14 11 12 11 13 14 13 14 14 14 15 13 13 13 16 16 14 14 14 12 16 17 14 18 25 23 19 17 15 13 13 13 14 14 15 15
5 5 4 1 2 5 10 15 14 11 9 10 14 12 15 14 14 15 16 13 13 12 12 13 16 15 15 13 14 14 14 17 19 24 25 20 20 17 15 14 14 14 14 15 15
6 7 5 0 2 8 15 14 12 9 9 11 12 13 12 13 13 15 14 13 12 13 11 13 14 17 15 16 16 16 17 17 16 18 22 24 19 16 15 14 14 14 14 14 15
5 11 4 1 9 9 13 12 10 10 8 9 10 11 12 11 13 14 14 13 11 12 14 13 14 18 17 15 14 15 15 15 17 20 20 20 18 14 14 14 14 14 14 15 15
8 8 3 2 12 11 9 10 9 10 10 10 11 10 10 12 14 12 11 9 10 12 13 11 14 18 17 14 14 16 15 14 14 16 20 21 18 15 16 15 14 14 14 15 15
8 12 8 5 6 9 11 11 11 9 10 8 10 9 10 12 11 13 12 9 9 10 9 9 13 15 18 16 14 16 15 14 13 16 19 16 15 14 15 14 14 14 14 15 15
9 11 8 12 10 9 9 10 11 12 9 9 10 10 11 13 13 13 11 11 10 9 9 10 15 14 13 13 14 15 15 15 15 14 16 14 14 12 11 11 11 13 13 15 15
11 11 10 11 8 9 9 10 11 10 10 11 11 10 10 12 12 14 11 11 12 11 11 10 15 14 15 13 13 15 14 14 14 13 13 13 14 11 11 12 13 12 13 14 14
9 8 8 10 12 12 11 10 10 9 8 8 9 10 11 10 9 9 8 9 9 11 12 12 14 15 17 14 14 17 14 14 14 13 13 15 12 9 12 12 11 11 12 12 13